STARLINK-30102, 57434

Orbit data source: Space-Track

STARLINK-30102, 57434 is a payload satellite owned by SpaceX/Seattle (US) in LEO that was launched on Mon, 24 Jul 2023 UTC via an FALCON 9 launch vehicle from the Air Force Eastern Test Range (AFETR). Payload-class satellites include a variety of spacecraft equipped with specific instruments for various scientific and technological missions. These include communications satellites like Starlink; space stations such as the ISS; scientific satellites like the Hubble; Earth observation satellites from companies like Planet Labs, Umbra, and HawkEye 360; GPS; miniature CubeSats for education and research; and military/defense satellites.

Loading next visibility...
Identifier
57434, 2023-105E
Orbit
LEO
Country
Flag of USUS
Related business
Manufacturer
SpaceX/Seattle
Mission
Operational Commercial Communications
Bus & Motor
STARLINK V2M, Unknown motor
Mass
730 kg wet, ~700 kg dry
Launch date (UTC)
2023-07-24 (3 years ago)
Launch vehicle
FALCON 9
Launch site
Air Force Eastern Test Range (AFETR)
Object type
Payload
Rocket body
Debris
Shape & HBR
Box + 2 Pan, 17.7 m
Radar Cross Section
33.884 m², Large (>1 m²)

Expand to show TLE details & history
Last TLE update: 2 days ago

TLE from 2 days ago
0 STARLINK-30102
1 57434U 23105E   26171.36214385  .00000881  00000-0  41536-4 0  9993
2 57434  43.0053  40.0671 0001214 287.1277  72.9442 15.27592149161236
Epoch: 2026-06-20T08:41Z
TLE epoch observation values (Epoch: 2026-06-20T08:41:29.228Z)
Latitude
-0.00001°
Longitude
1.11745°
Altitude
482.545 km
Speed
7.626 km/s
True Right ascension
02h 40m 16s
True Declination
0° 00' 00"
Sunlit
Object was in daylight at epoch
Visualization orbit readout
Latitude
Unknown
Longitude
Unknown
Altitude
Unknown
Speed
Unknown
Apparent Right ascension
Unknown
Apparent Declination
Unknown
Sunlit
N/A
Visualization observer readout
Local Sidereal Time
21:26:35
Azimuth
Unknown
Elevation
Unknown
Doppler factor
Unknown
Orbital elements
Apogee altitude
485.79 km
Perigee altitude
484.124 km
Semi-major axis
6,863.094 km
Eccentricity
0.00012
Inclination
43.0053°
RAAN
40.0671°
Arg. of periapsis
287.1277°
True anomaly
72.9575°
Mean anomaly
72.9442°
Eccentric anomaly
72.95085°
Mean motion
3.81736 °/min
Orbital period
94.31 mins
BSTAR
0.000041536
Loading maneuver chart data...
Computing Atmospheric mass density...

Documentation

Showing up to 5 results
|